Weather History for PAKP - October, 2013

Change the Weather History Date:

Saturday, October 19, 2013

  Actual Average Record
Temperature  
Mean Temperature 34 °F -  
Max Temperature 39 °F 9 °F 39 °F (2013)
Min Temperature 30 °F 0 °F -16 °F (1997)
Degree Days  
Heating Degree Days 30    
Moisture  
Dew Point 26 °F    
Average Humidity 69    
Maximum Humidity 75    
Minimum Humidity 56    
Precipitation  
Precipitation 0.00 in - - ()
Sea Level Pressure  
Sea Level Pressure 29.35 in    
Wind  
Wind Speed 3 mph (SW)    
Max Wind Speed 14 mph    
Max Gust Speed 20 mph    
Visibility 10 miles    
Events      
Averages and records for this station are not official NWS values.
T = Trace of Precipitation, MM = Missing Value Source: NWS Daily Summary

Daily Weather History Graph

Daily Weather History Graph

Search for Another Location

Airport or City:

Trip Planner

Search our weather history database for the weather conditions in past years. The results will help you decide how hot, cold, wet, or windy it might be!

Date:

Astronomy

Oct. 19, 2013 Rise Set
Actual Time 9:28 AM AKDT 6:13 PM AKDT
Civil Twilight 8:29 AM AKDT 7:12 PM AKDT
Nautical Twilight 7:24 AM AKDT 8:17 PM AKDT
Astronomical Twilight 6:18 AM AKDT 9:22 PM AKDT
Moon 6:02 PM AKDT (10/19) 10:55 AM AKDT (10/19)
Length of Visible Light 10h 43m
Length of Day
8h 45m
Full, 99% of the Moon is Illuminated
Oct 19
Full
Oct 26
Last Quarter
Nov 3
New
Nov 9
First Quarter
Nov 17
Full

Hourly Weather History & Observations

Time (AKDT) Temp. Windchill Dew Point Humidity Pressure Visibility Wind Dir Wind Speed Gust Speed Precip Events Conditions
12:16 AM 35.6 °F 29.9 °F 28.4 °F 75% 29.47 in 10.0 mi South 6.9 mph - N/A   Scattered Clouds
12:36 AM 35.6 °F 30.7 °F 28.4 °F 75% 29.47 in 10.0 mi SSW 5.8 mph - N/A   Mostly Cloudy
12:56 AM 35.6 °F 30.7 °F 28.4 °F 75% 29.47 in 10.0 mi SSW 5.8 mph - N/A   Mostly Cloudy
1:16 AM 35.6 °F 30.7 °F 28.4 °F 75% 29.47 in 10.0 mi NNW 5.8 mph - N/A   Mostly Cloudy
1:36 AM 35.6 °F - 28.4 °F 75% 29.47 in 10.0 mi Calm Calm - N/A   Mostly Cloudy
1:56 AM 35.6 °F - 28.4 °F 75% 29.47 in 10.0 mi Calm Calm - N/A   Overcast
2:16 AM 35.6 °F 32.8 °F 26.6 °F 70% 29.46 in 10.0 mi North 3.5 mph - N/A   Overcast
2:36 AM 35.6 °F - 28.4 °F 75% 29.46 in 10.0 mi Calm Calm - N/A   Overcast
2:56 AM 35.6 °F - 28.4 °F 75% 29.46 in 10.0 mi Calm Calm - N/A   Overcast
3:16 AM 35.6 °F - 28.4 °F 75% 29.46 in 10.0 mi Calm Calm - N/A   Overcast
3:36 AM 35.6 °F - 28.4 °F 75% 29.45 in 10.0 mi Calm Calm - N/A   Mostly Cloudy
3:56 AM 33.8 °F 28.6 °F 26.6 °F 75% 29.45 in 10.0 mi West 5.8 mph - N/A   Partly Cloudy
4:16 AM 33.8 °F - 26.6 °F 75% 29.44 in 10.0 mi Calm Calm - N/A   Clear
4:36 AM 33.8 °F - 26.6 °F 75% 29.44 in 10.0 mi Calm Calm - N/A   Clear
4:56 AM 33.8 °F - 26.6 °F 75% 29.43 in 10.0 mi Calm Calm - N/A   Clear
5:16 AM 33.8 °F - 26.6 °F 75% 29.42 in 10.0 mi Calm Calm - N/A   Clear
5:36 AM 33.8 °F - 24.8 °F 70% 29.42 in 10.0 mi Calm Calm - N/A   Partly Cloudy
5:56 AM 32.0 °F - 24.8 °F 75% 29.42 in 10.0 mi Calm Calm - N/A   Clear
6:16 AM 33.8 °F - 26.6 °F 75% 29.41 in 10.0 mi Calm Calm - N/A   Partly Cloudy
6:36 AM 32.0 °F - 24.8 °F 75% 29.40 in 10.0 mi Calm Calm - N/A   Mostly Cloudy
6:56 AM 32.0 °F 28.7 °F 24.8 °F 75% 29.40 in 10.0 mi WNW 3.5 mph - N/A   Mostly Cloudy
7:16 AM 35.6 °F - 26.6 °F 70% 29.40 in 10.0 mi Calm Calm - N/A   Partly Cloudy
7:36 AM 32.0 °F - 23.0 °F 69% 29.40 in 10.0 mi Calm Calm - N/A   Clear
7:56 AM 33.8 °F 30.8 °F 24.8 °F 70% 29.39 in 10.0 mi NW 3.5 mph - N/A   Partly Cloudy
8:16 AM 32.0 °F 28.7 °F 23.0 °F 69% 29.38 in 10.0 mi NW 3.5 mph - N/A   Clear
8:36 AM 32.0 °F - 23.0 °F 69% 29.38 in 10.0 mi Calm Calm - N/A   Clear
8:56 AM 32.0 °F - 23.0 °F 69% 29.37 in 10.0 mi Calm Calm - N/A   Clear
9:16 AM 32.0 °F - 21.2 °F 64% 29.37 in 10.0 mi Calm Calm - N/A   Clear
9:36 AM 30.2 °F - 21.2 °F 69% 29.38 in 10.0 mi Calm Calm - N/A   Scattered Clouds
9:56 AM 32.0 °F - 23.0 °F 69% 29.37 in 10.0 mi Calm Calm - N/A   Overcast
10:16 AM 33.8 °F - 23.0 °F 65% 29.37 in 10.0 mi Calm Calm - N/A   Mostly Cloudy
10:36 AM 33.8 °F - 24.8 °F 70% 29.36 in 10.0 mi Calm Calm - N/A   Mostly Cloudy
10:56 AM 35.6 °F 30.7 °F 24.8 °F 65% 29.36 in 10.0 mi NNW 5.8 mph - N/A   Overcast
11:16 AM 35.6 °F - 23.0 °F 60% 29.35 in 10.0 mi Calm Calm - N/A   Mostly Cloudy
11:36 AM 37.4 °F 34.9 °F 24.8 °F 60% 29.34 in 10.0 mi WNW 3.5 mph - N/A   Partly Cloudy
11:56 AM 35.6 °F 31.7 °F 24.8 °F 65% 29.34 in 10.0 mi SSW 4.6 mph - N/A   Clear
12:16 PM 35.6 °F - 24.8 °F 65% 29.33 in 10.0 mi Calm Calm - N/A   Clear
12:36 PM 35.6 °F - 24.8 °F 65% 29.33 in 10.0 mi Calm Calm - N/A   Clear
12:56 PM 33.8 °F 30.8 °F 24.8 °F 70% 29.33 in 10.0 mi SW 3.5 mph - N/A   Clear
1:16 PM 35.6 °F - 24.8 °F 65% 29.32 in 10.0 mi Calm Calm - N/A   Clear
1:36 PM 35.6 °F 32.8 °F 24.8 °F 65% 29.31 in 10.0 mi South 3.5 mph - N/A   Clear
1:56 PM 37.4 °F 33.8 °F 24.8 °F 60% 29.31 in 10.0 mi SSW 4.6 mph - N/A   Clear
2:16 PM 37.4 °F 32.8 °F 26.6 °F 65% 29.30 in 10.0 mi South 5.8 mph - N/A   Scattered Clouds
2:36 PM 39.2 °F 35.9 °F 26.6 °F 61% 29.30 in 10.0 mi SSW 4.6 mph - N/A   Partly Cloudy
2:56 PM 37.4 °F 32.1 °F 26.6 °F 65% 29.29 in 10.0 mi SW 6.9 mph - N/A   Clear
3:16 PM 37.4 °F 32.8 °F 26.6 °F 65% 29.29 in 10.0 mi South 5.8 mph - N/A   Scattered Clouds
3:36 PM 37.4 °F 34.9 °F 26.6 °F 65% 29.29 in 10.0 mi South 3.5 mph - N/A   Mostly Cloudy
3:56 PM 37.4 °F - 24.8 °F 60% 29.28 in 10.0 mi Calm Calm - N/A   Overcast
4:16 PM 37.4 °F - 24.8 °F 60% 29.27 in 10.0 mi Calm Calm - N/A   Mostly Cloudy
4:36 PM 37.4 °F - 24.8 °F 60% 29.27 in 10.0 mi Calm Calm - N/A   Overcast
4:56 PM 37.4 °F - 24.8 °F 60% 29.27 in 10.0 mi Calm Calm - N/A   Mostly Cloudy
5:16 PM 37.4 °F - 24.8 °F 60% 29.26 in 10.0 mi Calm Calm - N/A   Mostly Cloudy
5:36 PM 37.4 °F 33.8 °F 24.8 °F 60% 29.26 in 10.0 mi NNE 4.6 mph - N/A   Overcast
5:56 PM 39.2 °F 33.0 °F 24.8 °F 56% 29.26 in 10.0 mi East 9.2 mph - N/A   Overcast
6:16 PM 37.4 °F 30.3 °F 26.6 °F 65% 29.26 in 10.0 mi SE 10.4 mph - N/A   Overcast
6:36 PM 37.4 °F 30.8 °F 26.6 °F 65% 29.26 in 10.0 mi SE 9.2 mph - N/A   Overcast
6:56 PM 35.6 °F 29.2 °F 28.4 °F 75% 29.26 in 10.0 mi SSE 8.1 mph - N/A   Overcast
7:16 PM 35.6 °F 31.7 °F 26.6 °F 70% 29.27 in 10.0 mi South 4.6 mph - N/A   Overcast
7:36 PM 35.6 °F - 26.6 °F 70% 29.27 in 10.0 mi Calm Calm - N/A   Overcast
7:56 PM 35.6 °F - 26.6 °F 70% 29.27 in 10.0 mi Calm Calm - N/A   Overcast
8:16 PM 33.8 °F - 26.6 °F 75% 29.27 in 10.0 mi Calm Calm - N/A   Overcast
8:36 PM 33.8 °F - 26.6 °F 75% 29.28 in 10.0 mi Calm Calm - N/A   Overcast
8:56 PM 33.8 °F - 26.6 °F 75% 29.28 in 10.0 mi Calm Calm - N/A   Mostly Cloudy
9:16 PM 35.6 °F 32.8 °F 26.6 °F 70% 29.29 in 10.0 mi South 3.5 mph - N/A   Mostly Cloudy
9:36 PM 33.8 °F - 26.6 °F 75% 29.29 in 10.0 mi Calm Calm - N/A   Mostly Cloudy
9:56 PM 35.6 °F 30.7 °F 26.6 °F 70% 29.30 in 10.0 mi SW 5.8 mph - N/A   Overcast
10:16 PM 35.6 °F 29.9 °F 26.6 °F 70% 29.30 in 10.0 mi SW 6.9 mph - N/A   Overcast
10:36 PM 35.6 °F 28.0 °F 26.6 °F 70% 29.31 in 10.0 mi SW 10.4 mph - N/A   Overcast
10:56 PM 35.6 °F 28.0 °F 26.6 °F 70% 29.31 in 10.0 mi SSW 10.4 mph - N/A   Overcast
11:16 PM 35.6 °F 27.1 °F 26.6 °F 70% 29.33 in 10.0 mi SSW 12.7 mph - N/A   Overcast
11:36 PM 35.6 °F 26.6 °F 26.6 °F 70% 29.33 in 10.0 mi SW 13.8 mph 19.6 mph N/A   Overcast
11:56 PM 35.6 °F 27.5 °F 26.6 °F 70% 29.33 in 10.0 mi SW 11.5 mph 18.4 mph N/A   Overcast